Wind_Speed
65 64 63 61 60 58 57 56 57 58 59 60 61 63 64 64 64 64 64 63 61 61 63 64 64 63 59 54 51 45 40 36 32 29 27 34 39 39 38 36 37 37
64 64 62 61 59 58 58 58 59 59 60 60 62 62 63 62 62 61 60 59 58 59 60 61 61 61 56 51 47 41 38 35 29 26 26 32 38 38 36 35 37 38
64 63 63 62 61 61 61 60 60 59 59 59 59 59 59 58 57 56 55 56 56 56 57 58 59 58 52 47 43 39 36 31 25 21 24 31 36 36 35 35 35 36
62 62 62 62 61 60 59 58 57 56 56 55 55 54 53 53 52 51 51 52 52 52 53 54 56 54 49 44 39 37 33 25 19 16 22 30 33 34 34 35 34 33
56 56 56 56 55 55 54 54 53 52 52 52 51 50 49 48 47 46 47 47 48 48 49 51 51 50 46 40 35 32 26 18 13 13 24 31 33 33 32 35 35 33
50 51 52 52 52 52 52 51 50 49 49 48 47 46 45 44 42 42 43 44 45 46 46 47 47 46 43 37 31 27 20 11 8 14 27 32 33 33 32 34 34 32
49 50 50 50 50 50 49 49 48 48 47 46 45 44 42 41 39 39 40 42 43 44 44 44 44 43 40 35 28 22 14 6 7 14 25 29 30 31 32 32 32 31
48 49 49 49 49 49 49 48 48 47 46 45 44 43 41 39 37 37 38 40 42 42 42 42 42 40 38 33 26 19 11 7 10 14 21 26 28 30 31 31 31 31
47 48 49 49 49 49 49 49 48 47 46 45 43 42 41 39 36 35 37 38 40 41 41 41 40 38 35 32 27 19 12 11 13 16 21 26 29 30 31 31 30 30
48 48 49 50 50 50 49 48 47 46 45 44 43 42 41 39 36 35 35 36 37 39 39 39 38 36 33 31 28 22 15 13 14 17 21 26 30 31 32 32 31 29
49 50 50 50 50 50 49 48 47 46 45 44 43 42 41 39 37 34 34 35 35 36 37 38 37 35 32 30 29 26 20 17 17 18 22 26 29 32 33 34 35 33
50 50 50 50 50 49 49 48 47 46 45 44 43 42 41 39 37 35 34 34 34 35 35 36 36 36 33 29 29 29 25 22 22 22 23 26 29 32 34 36 38 36
49 49 49 48 48 48 47 47 46 46 45 44 42 42 41 40 38 36 34 34 34 34 34 34 34 35 34 30 27 28 29 27 27 27 27 28 29 32 34 36 38 39
47 47 47 46 46 46 46 46 45 45 44 43 42 42 41 41 39 37 36 35 34 34 34 34 33 33 34 33 29 27 28 31 31 31 31 32 32 33 36 38 39 41
47 47 47 46 46 45 45 45 45 44 44 43 42 41 42 42 41 39 38 37 36 35 35 34 34 33 33 33 32 29 27 30 33 36 36 36 37 37 38 40 41 43
48 48 47 47 47 46 46 45 44 44 43 43 42 42 42 43 43 42 41 40 39 37 36 35 35 35 34 33 34 33 30 29 31 36 39 40 41 42 42 43 44 44
49 49 49 48 48 47 47 46 45 44 43 43 42 42 43 44 44 44 44 43 42 40 39 37 37 37 36 35 34 34 34 32 31 33 38 42 44 45 46 47 47 47
50 50 50 49 49 48 48 47 46 45 44 44 44 44 44 45 46 46 46 46 45 44 43 41 39 39 39 38 37 36 36 36 35 34 35 39 43 47 49 49 50 50
51 51 52 51 51 50 49 48 47 46 46 46 46 46 46 46 47 48 48 48 48 48 47 45 44 43 42 41 40 39 38 38 37 37 37 37 40 44 48 51 52 52
52 53 53 53 53 52 51 50 49 48 48 47 47 48 48 47 48 49 50 50 50 50 49 49 48 47 46 45 43 42 42 41 40 39 39 39 40 42 45 49 53 54
54 54 54 54 54 53 52 52 51 50 50 50 49 49 49 49 49 50 51 51 52 52 51 51 51 50 50 49 48 47 46 45 44 43 42 42 42 42 44 47 50 53
56 55 55 54 53 53 52 52 52 52 52 52 52 51 50 50 50 51 52 53 53 54 54 53 53 53 53 52 52 51 50 49 48 47 46 46 45 45 45 46 48 51
55 54 54 53 52 52 52 52 53 52 52 52 52 52 52 51 52 52 52 53 54 55 55 55 55 55 55 55 55 54 54 54 53 51 51 50 49 48 48 47 48 50
54 53 52 51 51 50 50 51 51 52 52 51 52 52 53 53 53 53 54 54 55 56 56 57 57 57 57 57 57 57 57 57 57 56 55 54 53 53 52 51 50 50
53 52 51 51 50 49 48 48 49 50 51 51 51 52 52 53 54 54 55 55 56 57 57 58 58 59 59 59 59 59 60 60 60 59 59 58 57 57 56 55 54 53
52 52 52 52 51 50 49 48 48 49 50 50 51 51 52 53 54 54 55 56 57 57 58 59 59 60 60 61 61 61 62 62 62 62 62 62 62 61 61 60 59 58
Wind_Direction
276 277 278 280 281 282 284 285 286 285 286 287 288 289 290 292 293 295 298 300 303 306 308 310 310 312 315 316 316 316 314 310 300 285 259 234 225 220 220 220 215 215
275 277 278 279 280 281 283 285 286 287 287 288 289 289 290 291 293 296 298 301 304 307 308 310 311 313 317 318 320 320 316 309 298 281 254 228 219 215 214 215 213 214
275 276 277 279 281 281 283 285 286 287 288 288 289 290 290 292 294 296 299 301 304 306 309 312 313 315 319 322 323 322 316 309 300 278 246 223 214 210 209 212 214 216
276 277 278 279 281 282 283 284 286 287 288 289 290 290 291 293 294 297 299 301 304 307 311 314 316 318 321 325 324 321 315 310 302 270 230 214 209 206 207 210 212 216
276 277 279 280 281 283 284 285 286 287 288 289 290 291 292 293 295 297 299 301 304 308 313 317 318 320 323 326 323 318 311 307 297 244 210 206 207 206 206 209 211 216
278 279 280 281 283 284 285 285 287 288 289 290 290 291 292 294 296 297 299 302 306 310 315 318 320 321 323 325 321 313 307 298 272 216 201 204 208 208 207 210 214 221
280 281 282 282 283 284 285 287 288 289 290 291 291 291 292 293 295 297 300 303 307 311 316 320 322 322 322 323 318 308 298 268 227 208 204 207 209 209 209 211 217 224
280 281 281 282 284 285 287 288 289 290 290 290 290 290 290 291 293 296 300 304 308 312 317 321 323 323 322 320 315 301 278 229 209 207 208 208 208 209 211 215 219 223
280 281 282 283 284 285 287 288 289 289 289 288 288 288 288 290 291 295 299 304 308 313 318 322 324 324 321 316 311 296 264 226 214 210 208 209 211 214 216 218 221 225
280 282 282 284 285 285 286 287 287 288 288 287 286 286 286 288 289 293 297 302 307 312 317 321 323 324 321 313 306 294 264 235 225 219 215 214 215 219 221 221 222 228
282 282 283 284 285 285 285 286 286 287 287 286 284 283 284 285 287 290 295 300 304 309 314 318 321 323 321 312 303 293 270 245 234 227 222 221 221 223 225 225 226 231
283 283 284 284 285 284 284 284 284 285 284 284 282 281 282 283 284 287 292 296 300 305 309 314 318 320 321 315 304 294 277 255 242 235 229 225 227 229 229 230 230 234
283 284 284 285 284 283 283 283 282 282 282 282 280 279 280 281 282 285 289 292 296 301 305 309 313 316 318 317 308 297 284 267 251 244 239 233 232 233 234 234 233 236
284 283 284 284 283 282 282 282 281 282 281 280 278 278 278 279 281 283 286 289 292 296 299 303 307 311 313 314 312 302 288 276 263 253 247 243 239 237 237 237 237 237
284 284 284 283 283 282 282 282 282 281 280 278 277 276 277 278 279 281 283 286 288 291 295 297 301 304 307 309 310 306 295 282 271 262 255 250 247 244 241 240 240 240
285 285 284 284 283 282 282 282 282 281 279 278 276 276 275 276 278 279 281 284 285 287 290 293 295 298 301 303 305 306 302 291 278 268 262 256 253 251 248 245 243 242
284 284 284 283 283 282 281 281 281 280 279 278 277 276 276 276 276 278 280 282 284 285 286 289 291 293 295 297 300 302 302 299 289 277 267 261 257 255 253 252 249 247
283 283 282 282 283 283 281 281 280 280 280 278 278 278 277 276 276 276 278 280 282 284 285 286 287 289 290 292 294 296 297 298 295 289 278 268 261 257 256 256 255 253
283 282 282 282 283 283 282 282 281 281 281 280 279 279 278 278 276 276 276 278 279 281 283 285 286 287 288 288 289 291 292 293 293 292 288 279 270 262 258 257 257 256
282 282 282 282 283 283 283 283 283 283 283 282 281 280 279 278 277 276 276 276 278 279 281 283 285 286 286 287 287 288 289 289 290 289 288 285 279 272 265 260 257 256
281 281 281 282 283 284 284 285 285 285 284 283 283 282 279 277 277 277 277 277 277 278 279 281 282 284 285 286 286 286 286 287 287 287 286 284 281 278 273 267 262 259
280 280 280 281 283 284 285 286 286 286 285 284 284 283 281 279 278 278 278 277 277 278 279 280 281 282 283 284 284 285 285 285 285 285 284 283 281 278 275 272 269 264
279 279 280 282 283 284 285 285 286 286 286 285 283 282 281 281 280 279 279 279 278 279 279 280 280 281 282 283 283 283 284 284 284 284 283 282 281 279 277 274 271 269
277 279 281 283 285 286 286 286 285 284 285 285 284 282 281 281 281 281 281 280 280 280 280 280 281 281 282 282 282 283 283 284 284 284 284 283 281 280 279 276 272 269
278 280 282 284 285 286 287 288 287 285 284 284 283 282 281 281 281 281 281 281 281 280 280 281 281 281 281 282 282 283 283 284 284 284 284 284 283 282 281 279 276 272
279 280 282 284 285 285 286 289 290 288 285 284 283 283 282 281 281 281 281 280 280 280 280 280 281 281 282 282 283 283 284 284 285 285 285 285 284 284 282 281 279 276
Height
10683 10683 10683 10683 10683 10682 10682 10680 10679 10677 10676 10676 10675 10673 10672 10670 10668 10666 10663 10660 10659 10655 10651 10647 10642 10638 10634 10630 10624 10619 10614 10611 10608 10605 10605 10607 10612 10618 10623 10627 10631 10634
10678 10678 10678 10677 10677 10677 10676 10675 10673 10672 10671 10670 10669 10667 10666 10664 10662 10660 10657 10655 10653 10650 10646 10642 10637 10633 10630 10625 10619 10614 10610 10607 10605 10602 10601 10604 10609 10615 10620 10624 10628 10631
10673 10672 10672 10672 10672 10671 10671 10669 10668 10667 10666 10665 10663 10662 10660 10658 10657 10655 10653 10650 10648 10646 10642 10638 10633 10628 10625 10620 10615 10611 10607 10604 10602 10599 10600 10603 10608 10613 10617 10622 10625 10628
10668 10667 10667 10667 10666 10666 10665 10664 10662 10661 10660 10659 10658 10656 10655 10653 10652 10650 10648 10646 10644 10642 10638 10634 10628 10624 10620 10616 10612 10609 10605 10602 10600 10599 10600 10604 10608 10612 10616 10620 10623 10626
10663 10662 10662 10661 10661 10660 10659 10658 10657 10656 10655 10654 10652 10651 10650 10649 10648 10646 10644 10641 10640 10638 10635 10630 10625 10620 10617 10613 10610 10608 10604 10602 10600 10599 10601 10605 10609 10612 10615 10618 10621 10624
10658 10657 10657 10656 10655 10654 10653 10652 10652 10651 10650 10648 10647 10646 10645 10644 10643 10641 10639 10637 10635 10633 10631 10627 10622 10618 10614 10611 10609 10607 10604 10602 10601 10601 10603 10606 10609 10612 10615 10617 10620 10622
10653 10652 10651 10651 10650 10649 10648 10647 10646 10645 10644 10643 10642 10641 10640 10639 10638 10636 10634 10632 10630 10629 10627 10623 10619 10615 10611 10609 10608 10606 10604 10603 10602 10603 10605 10607 10609 10611 10614 10616 10618 10620
10647 10646 10646 10645 10645 10644 10643 10642 10641 10640 10639 10638 10637 10636 10635 10634 10633 10632 10630 10627 10625 10624 10622 10619 10616 10613 10609 10607 10607 10606 10604 10603 10603 10604 10605 10607 10608 10610 10612 10614 10616 10618
10642 10641 10641 10640 10639 10639 10637 10636 10636 10635 10633 10633 10632 10630 10629 10629 10628 10627 10625 10623 10620 10619 10617 10615 10613 10610 10607 10605 10605 10605 10604 10603 10603 10603 10604 10606 10607 10609 10611 10612 10613 10615
10637 10636 10635 10635 10634 10633 10632 10631 10630 10629 10628 10628 10627 10626 10624 10624 10623 10622 10621 10619 10617 10614 10613 10612 10610 10608 10605 10603 10602 10603 10603 10603 10602 10603 10603 10605 10606 10607 10608 10609 10610 10611
10631 10631 10630 10630 10629 10628 10627 10626 10625 10624 10623 10623 10622 10621 10620 10619 10618 10618 10616 10615 10613 10611 10609 10608 10607 10605 10603 10601 10600 10601 10602 10601 10601 10601 10602 10602 10603 10604 10605 10606 10606 10607
10626 10626 10625 10624 10623 10622 10621 10620 10620 10619 10618 10617 10617 10616 10615 10614 10614 10613 10612 10611 10609 10608 10606 10605 10603 10602 10601 10600 10598 10598 10599 10599 10599 10599 10599 10600 10600 10601 10601 10602 10602 10603
10620 10620 10620 10619 10618 10617 10616 10615 10614 10613 10613 10612 10611 10611 10610 10609 10609 10608 10608 10607 10605 10604 10603 10601 10600 10599 10598 10597 10596 10595 10595 10596 10596 10596 10596 10597 10597 10597 10597 10598 10598 10599
10615 10615 10614 10613 10613 10612 10611 10610 10609 10608 10608 10607 10606 10605 10605 10604 10604 10603 10603 10603 10602 10600 10599 10598 10597 10595 10594 10593 10593 10592 10592 10592 10592 10593 10593 10593 10593 10593 10593 10594 10594 10595
10610 10609 10609 10608 10608 10607 10606 10605 10604 10603 10602 10602 10601 10600 10600 10599 10598 10598 10598 10598 10597 10596 10595 10593 10592 10591 10590 10589 10589 10589 10588 10588 10588 10588 10589 10589 10589 10589 10589 10589 10590 10590
10604 10604 10604 10603 10603 10602 10601 10600 10599 10598 10597 10596 10596 10595 10594 10594 10593 10592 10592 10592 10592 10592 10591 10589 10588 10587 10586 10585 10584 10584 10584 10584 10583 10583 10584 10584 10585 10584 10584 10584 10585 10585
10599 10599 10598 10598 10597 10597 10596 10595 10594 10593 10592 10591 10590 10590 10589 10588 10588 10587 10587 10586 10586 10586 10585 10585 10583 10582 10581 10581 10580 10579 10578 10578 10578 10578 10578 10579 10579 10579 10579 10579 10579 10579
10594 10593 10593 10592 10592 10591 10590 10589 10588 10588 10587 10586 10585 10584 10584 10583 10582 10581 10581 10580 10579 10579 10579 10579 10578 10577 10576 10576 10575 10574 10573 10572 10572 10572 10572 10572 10573 10573 10573 10573 10573 10573
10588 10588 10587 10587 10586 10585 10585 10584 10583 10582 10581 10580 10579 10578 10578 10577 10576 10576 10575 10574 10573 10573 10572 10572 10571 10571 10570 10570 10570 10569 10568 10567 10566 10566 10565 10565 10565 10566 10566 10566 10566 10567
10582 10582 10581 10581 10580 10579 10579 10578 10577 10576 10575 10574 10573 10572 10571 10570 10570 10569 10568 10568 10567 10566 10566 10565 10565 10564 10563 10563 10563 10563 10562 10561 10561 10560 10559 10558 10558 10558 10558 10558 10558 10559
10577 10576 10575 10575 10574 10573 10572 10572 10571 10570 10569 10568 10567 10566 10565 10564 10563 10562 10562 10561 10561 10560 10559 10559 10558 10557 10556 10556 10555 10555 10555 10555 10554 10553 10553 10552 10551 10550 10550 10550 10550 10550
10571 10570 10570 10569 10568 10567 10566 10565 10564 10563 10562 10561 10560 10559 10558 10557 10557 10556 10555 10554 10553 10553 10552 10551 10551 10550 10549 10548 10547 10547 10547 10546 10546 10546 10545 10544 10544 10543 10543 10542 10541 10541
10565 10565 10564 10563 10562 10561 10560 10559 10558 10557 10556 10554 10553 10552 10551 10550 10550 10549 10548 10547 10546 10545 10545 10544 10543 10542 10541 10540 10539 10538 10538 10537 10537 10537 10537 10536 10536 10535 10534 10534 10533 10532
10559 10559 10558 10558 10557 10555 10554 10553 10552 10550 10549 10548 10547 10545 10544 10543 10543 10542 10541 10540 10539 10538 10537 10536 10535 10534 10533 10532 10531 10530 10529 10528 10527 10527 10527 10527 10526 10525 10525 10524 10524 10524
10554 10553 10552 10551 10551 10549 10548 10547 10545 10544 10542 10541 10540 10539 10538 10537 10536 10535 10534 10533 10531 10530 10529 10528 10527 10525 10524 10523 10522 10521 10520 10518 10518 10517 10516 10516 10515 10515 10514 10513 10513 10513
10548 10547 10546 10545 10544 10543 10542 10540 10539 10537 10536 10535 10533 10532 10531 10530 10529 10527 10526 10525 10524 10522 10521 10520 10518 10517 10516 10514 10513 10512 10510 10509 10508 10506 10505 10504 10503 10503 10502 10501 10501 10501